WD8LSN Weather Reports


time (UTC)temp
C
wind
direction
speed
KPH
gust
KPH
rain 1hr
cm
rain 24hr
cm
rain mn
cm
humidity
%
barometer
mb
20260508180059 20 151 4.8 17.7 0.00 0.00 0.00 44 1014.0
20260508174611 20 266 4.8 16.1 0.00 0.00 0.00 44 1014.2
20260508173107 20 189 4.8 20.9 0.00 0.00 0.00 47 1014.6
20260508171617 20 198 3.2 17.7 0.00 0.00 0.00 45 1014.8
20260508170051 19 216 9.7 16.1 0.00 0.00 0.00 45 1015.0
20260508164548 19 239 4.8 25.7 0.00 0.00 0.00 47 1015.3
20260508163056 19 131 3.2 17.7 0.00 0.00 0.00 48 1015.4
20260508161600 18 231 6.4 14.5 0.00 0.00 0.00 50 1015.7
20260508160056 17 243 11.3 19.3 0.00 0.00 0.00 49 1015.8
20260508154553 17 248 3.2 19.3 0.00 0.00 0.00 49 1016.2
20260508153055 17 240 3.2 22.5 0.00 0.00 0.00 53 1016.4
20260508151554 16 229 4.8 11.3 0.00 0.00 0.00 51 1016.6
20260508150052 16 240 3.2 12.9 0.00 0.00 0.00 52 1016.7
20260508144549 16 277 4.8 14.5 0.00 0.00 0.00 53 1016.8
20260508143051 16 235 3.2 9.7 0.00 0.00 0.00 52 1017.0
20260508141552 15 252 1.6 12.9 0.00 0.00 0.00 57 1017.0
20260508140051 15 254 3.2 8.0 0.00 0.00 0.00 56 1017.0
20260508134606 13 247 1.6 6.4 0.00 0.00 0.00 63 1017.0
20260508133109 12 235 1.6 9.7 0.00 0.00 0.00 65 1017.0
20260508131554 11 172 0.0 9.7 0.00 0.00 0.00 68 1017.0
20260508130050 10 169 4.8 11.3 0.00 0.00 0.00 70 1016.7
20260508124547 9 175 3.2 12.9 0.00 0.00 0.00 73 1016.9
20260508123047 8 167 4.8 9.7 0.00 0.00 0.00 76 1016.8
20260508121552 8 162 1.6 4.8 0.00 0.00 0.00 77 1017.0
20260508120055 7 0 1.6 6.4 0.00 0.00 0.00 81 1016.9
20260508114550 6 152 1.6 6.4 0.00 0.00 0.00 83 1016.6
20260508113056 5 214 1.6 6.4 0.00 0.00 0.00 84 1016.5
20260508111554 4 172 0.0 4.8 0.00 0.00 0.00 87 1016.4
20260508110047 4 155 1.6 3.2 0.00 0.00 0.00 87 1016.3
20260508104553 3 0 0.0 1.6 0.00 0.00 0.00 87 1016.4
20260508103049 3 161 0.0 1.6 0.00 0.00 0.00 88 1016.1
20260508101556 3 142 1.6 3.2 0.00 0.00 0.00 88 1016.1
20260508100050 3 0 0.0 1.6 0.00 0.00 0.00 88 1016.0
20260508094559 3 157 0.0 3.2 0.00 0.00 0.00 88 1016.1
20260508093047 3 0 0.0 1.6 0.00 0.00 0.00 88 1016.1
20260508091622 3 158 0.0 3.2 0.00 0.00 0.00 88 1016.1
20260508090058 3 158 0.0 0.0 0.00 0.00 0.00 88 1016.1
20260508084547 3 0 0.0 3.2 0.00 0.00 0.00 88 1015.8
20260508083053 3 159 0.0 1.6 0.00 0.00 0.00 88 1015.9
20260508081548 3 0 0.0 1.6 0.00 0.00 0.00 87 1015.8
20260508080050 4 143 0.0 1.6 0.00 0.00 0.00 87 1015.7
20260508074548 4 157 0.0 1.6 0.00 0.00 0.00 87 1015.8
20260508073051 4 0 0.0 3.2 0.00 0.00 0.00 87 1015.9
20260508071554 4 157 1.6 3.2 0.00 0.00 0.00 87 1015.9
20260508070049 4 0 0.0 3.2 0.00 0.00 0.00 87 1016.0
20260508064552 4 158 0.0 3.2 0.00 0.00 0.00 87 1016.1
20260508063117 4 0 0.0 4.8 0.00 0.00 0.00 86 1016.1
20260508061552 4 152 0.0 0.0 0.00 0.00 0.00 86 1016.2
20260508060047 5 0 0.0 3.2 0.00 0.00 0.00 85 1016.3
20260508054550 5 0 0.0 1.6 0.00 0.00 0.00 84 1016.3
20260508053102 5 0 0.0 3.2 0.00 0.00 0.00 83 1016.3
20260508051616 5 146 1.6 3.2 0.00 0.00 0.00 83 1016.1
20260508050057 6 0 0.0 3.2 0.00 0.00 0.00 81 1016.3
20260508044553 6 145 0.0 1.6 0.00 0.00 0.00 80 1016.3
20260508043051 6 0 0.0 1.6 0.00 0.00 0.00 79 1016.3
20260508041554 6 148 1.6 3.2 0.00 0.00 0.00 78 1016.3
20260508040054 6 0 0.0 1.6 0.00 0.00 0.00 77 1016.3
20260508034547 7 0 0.0 1.6 0.00 0.00 0.00 75 1016.2
20260508033050 7 162 1.6 3.2 0.00 0.00 0.00 74 1016.3
20260508031551 7 148 1.6 4.8 0.00 0.00 0.00 72 1016.2
20260508030051 8 155 1.6 4.8 0.00 0.00 0.00 69 1016.4
20260508024550 8 0 0.0 0.0 0.00 0.00 0.00 67 1016.4
20260508023054 9 0 0.0 0.0 0.00 0.00 0.00 62 1016.4
20260508021554 10 0 0.0 0.0 0.00 0.00 0.00 54 1016.2
20260508020104 10 0 0.0 0.0 0.00 0.00 0.00 55 1016.2
20260508014550 10 0 0.0 0.0 0.00 0.00 0.00 56 1016.0
20260508013050 10 0 0.0 0.0 0.00 0.00 0.00 53 1016.0
20260508011550 11 0 0.0 0.0 0.00 0.00 0.00 51 1015.8
20260508010059 11 0 0.0 0.0 0.00 0.00 0.00 50 1015.6
20260508004545 11 0 0.0 0.0 0.00 0.00 0.00 50 1015.5
20260508003100 12 0 0.0 0.0 0.00 0.00 0.00 48 1015.3
20260508001553 13 0 0.0 4.8 0.00 0.00 0.00 45 1015.3
20260508000048 14 0 0.0 3.2 0.00 0.00 0.00 44 1015.1
20260507234547 15 302 0.0 8.0 0.00 0.00 0.00 43 1015.0
20260507233052 14 319 3.2 9.7 0.00 0.00 0.00 44 1015.0
20260507231552 15 319 4.8 14.5 0.00 0.00 0.00 42 1015.0
20260507230105 15 317 3.2 11.3 0.00 0.00 0.00 43 1014.9
20260507224549 15 311 8.0 22.5 0.00 0.00 0.00 43 1014.9
20260507223133 15 37 9.7 20.9 0.00 0.00 0.00 42 1015.0
20260507221547 15 326 6.4 24.1 0.00 0.00 0.00 42 1015.1
20260507220051 15 312 8.0 19.3 0.00 0.00 0.00 44 1015.0
20260507214558 15 338 6.4 14.5 0.00 0.00 0.00 43 1014.8
20260507213107 15 326 9.7 16.1 0.00 0.00 0.00 45 1014.8
20260507211551 14 328 6.4 29.0 0.00 0.00 0.00 44 1014.6
20260507210052 15 344 9.7 20.9 0.00 0.00 0.00 42 1014.6
20260507204552 14 310 9.7 25.7 0.00 0.00 0.00 41 1014.6
20260507203049 14 330 11.3 22.5 0.00 0.00 0.00 44 1014.5
20260507201602 15 347 4.8 17.7 0.00 0.00 0.00 45 1014.5
20260507200055 14 273 6.4 19.3 0.00 0.00 0.00 45 1014.6
20260507194552 14 333 8.0 25.7 0.00 0.00 0.00 44 1014.7
20260507193051 14 244 9.7 22.5 0.00 0.00 0.00 44 1014.7
20260507191552 14 274 6.4 14.5 0.00 0.00 0.00 45 1014.7
20260507190053 14 309 4.8 20.9 0.00 0.00 0.00 44 1014.7
20260507184546 14 283 16.1 29.0 0.00 0.00 0.00 42 1014.8
20260507183107 13 321 6.4 20.9 0.00 0.00 0.00 44 1014.9
20260507181548 14 359 4.8 19.3 0.00 0.00 0.00 44 1015.0